Theta_e
342 342 343 343 346 346 346 350 352 348 344 344 341 342 342 343 343 343 343 341 341 339 338 338 340 341 339 341 339 338 337 334
343 341 342 343 346 348 348 348 349 351 345 342 340 340 341 341 341 343 342 340 344 341 339 338 339 338 339 338 336 338 336 336
345 345 344 345 346 349 349 348 351 349 348 344 340 339 339 338 341 341 339 341 340 343 342 341 342 339 338 337 337 336 336 335
345 346 344 345 348 350 351 350 355 351 350 345 339 332 331 333 339 337 339 339 339 339 338 338 338 341 338 340 338 337 336 334
345 346 346 348 348 352 353 352 353 354 352 345 339 338 335 335 334 337 337 340 342 341 337 335 338 343 343 339 338 337 336 335
345 346 348 349 349 351 352 351 352 353 350 345 341 343 340 337 334 335 336 338 343 341 337 337 344 341 338 336 336 334 336 336
345 346 348 348 346 346 348 349 351 350 350 348 348 348 343 343 341 339 341 340 340 342 343 341 344 337 336 331 331 333 329 330
345 345 344 346 347 347 352 350 350 351 348 348 347 346 346 348 345 344 342 341 337 337 336 339 335 331 329 330 331 328 325 324
341 344 345 346 347 348 349 349 351 348 344 342 343 341 341 342 341 340 337 337 336 337 332 332 332 329 327 328 325 323 318 319
340 342 344 345 343 346 348 346 348 346 343 345 347 343 342 341 339 339 338 336 334 333 332 327 329 324 326 324 322 316 316 317
337 340 341 342 343 344 342 345 345 347 347 345 344 343 342 342 342 336 334 334 331 329 327 326 324 322 316 321 320 320 313 315
337 339 340 341 341 342 343 345 345 345 346 343 343 337 334 334 334 335 335 331 327 325 325 323 323 320 322 320 319 319 318 311
335 337 339 340 342 340 341 343 344 344 344 342 340 337 333 331 332 331 333 330 326 323 323 323 322 320 321 321 320 319 317 313
337 338 339 340 341 340 342 341 343 342 341 340 338 334 329 327 328 322 324 323 322 325 323 322 322 322 321 320 321 320 317 316
335 335 336 337 335 337 337 338 338 338 335 332 331 331 330 329 327 322 321 317 319 325 324 322 320 322 322 322 321 320 318 315
333 334 333 332 333 334 333 333 331 330 329 329 331 330 329 325 325 319 318 318 320 324 323 321 321 322 322 323 319 318 320 316
331 329 328 329 330 330 327 326 326 328 329 331 332 332 329 324 323 324 321 324 321 322 322 320 321 321 322 324 320 320 319 320
325 326 326 328 328 327 328 327 327 328 328 330 330 329 327 325 322 323 324 324 324 323 321 320 320 321 322 324 322 323 320 319
323 325 326 326 326 325 327 327 326 326 327 329 329 327 325 323 321 322 323 325 324 322 320 319 319 320 321 322 321 322 319 319
323 324 324 324 324 325 326 327 326 327 327 328 328 327 325 322 321 322 324 324 324 323 320 319 319 319 320 321 319 319 318 318
Wind_Speed
11 11 11 10 10 7 8 13 7 9 7 7 6 6 5 5 4 5 1 2 4 6 4 7 8 13 8 10 11 10 9 9
10 9 8 12 10 9 8 12 11 6 5 6 6 6 5 2 5 5 2 4 3 3 5 8 8 6 4 5 7 9 12 12
8 6 6 8 9 9 9 6 10 9 8 5 1 4 5 4 2 4 5 4 5 4 4 4 5 10 8 5 9 10 11 13
8 7 7 5 9 8 7 5 12 10 6 4 6 5 5 2 1 4 7 6 4 6 6 6 8 7 6 9 9 9 10 11
7 6 7 7 5 4 8 4 4 7 5 6 4 3 3 4 3 7 6 5 5 7 5 4 6 6 10 8 11 10 12 12
7 7 6 5 3 5 6 7 9 8 7 5 6 7 4 6 5 10 7 6 5 6 5 6 4 7 7 6 5 7 9 10
8 7 7 4 3 3 3 4 9 9 9 6 5 6 7 5 8 3 5 2 6 5 5 7 4 6 6 7 10 10 9 10
10 6 4 4 5 4 6 6 6 6 7 6 5 5 4 4 3 4 5 4 4 3 7 5 5 8 9 9 9 10 12 12
9 8 7 8 7 7 8 9 9 7 7 6 5 5 6 6 5 3 2 4 3 2 6 6 6 8 9 9 10 12 11 12
10 10 9 10 8 8 8 10 7 5 4 7 3 5 5 3 3 5 2 2 4 4 5 7 8 8 8 9 10 10 11 11
11 12 11 11 11 9 9 9 6 4 5 4 3 3 3 2 4 4 4 2 4 5 5 6 7 7 8 8 9 11 10 11
12 13 12 12 11 10 8 6 5 4 2 1 3 5 4 6 4 6 3 4 4 5 4 5 6 7 7 8 8 9 10 11
13 12 12 11 10 9 8 6 5 4 3 2 3 3 5 3 2 3 3 2 2 3 5 6 6 6 6 7 8 9 8 9
11 11 11 11 13 11 9 9 7 5 5 6 7 6 5 6 5 5 1 2 1 6 6 6 6 6 7 7 8 9 9 9
13 13 11 10 10 10 10 8 6 7 7 6 5 4 3 2 4 3 4 3 3 7 5 6 7 7 7 7 8 8 8 9
14 12 11 11 10 8 7 9 7 8 6 5 5 2 2 2 5 4 4 4 4 4 4 6 7 8 8 7 9 7 8 8
12 9 7 9 8 6 7 10 8 7 7 4 4 1 3 5 3 3 3 3 6 6 6 6 7 8 8 8 8 7 6 5
10 9 9 8 9 8 7 6 8 6 4 4 4 3 1 4 3 4 3 4 5 6 7 7 7 8 8 8 9 8 6 6
11 11 11 10 9 11 7 7 6 5 5 3 1 3 3 4 4 5 5 6 6 6 6 7 8 8 8 7 6 12 7 6
13 13 12 10 9 9 10 2 3 2 3 0 2 2 4 5 5 6 6 7 7 7 7 8 8 9 9 8 8 9 11 7
Wind_Direction
190 188 180 166 160 180 190 132 140 212 187 172 186 160 166 173 181 218 156 322 206 225 247 207 218 202 253 205 233 228 297 334
195 197 190 155 168 179 203 146 170 203 221 195 189 185 160 244 188 187 249 239 217 280 328 333 344 313 293 336 297 343 311 311
175 186 179 171 165 171 212 202 151 179 226 207 341 129 117 29 311 6 328 292 273 312 348 332 336 317 306 277 296 290 277 277
161 176 179 191 157 181 216 209 139 194 196 78 84 80 107 174 204 341 295 301 347 318 302 318 313 298 355 308 313 299 302 300
155 163 167 173 173 187 173 209 185 195 166 112 100 116 155 100 176 233 254 277 276 287 293 295 293 271 297 306 283 318 308 304
146 144 159 143 228 166 168 191 180 183 185 178 205 196 191 210 212 219 224 242 257 279 294 271 311 304 307 283 252 312 306 287
130 139 153 159 203 288 272 171 159 170 168 175 192 181 212 216 238 214 209 238 247 263 265 274 294 286 287 323 347 318 314 308
147 140 132 133 131 143 112 129 126 139 144 178 181 172 184 199 172 202 185 253 309 290 273 28 315 323 335 354 314 325 312 311
133 128 136 130 128 113 132 141 138 161 170 155 158 176 188 175 172 146 161 182 168 357 344 357 0 337 337 333 344 315 318 318
131 139 141 123 125 127 132 131 136 156 154 127 195 170 180 163 122 162 122 60 71 32 1 351 15 338 325 10 330 318 317 328
143 141 135 133 131 136 143 131 125 81 101 118 139 103 85 150 183 171 107 76 29 56 27 10 348 314 336 345 334 330 320 319
146 144 141 130 136 140 131 117 133 112 217 228 127 187 201 142 166 61 107 35 29 47 16 355 339 325 357 333 338 318 331 319
154 141 135 134 130 128 130 137 123 126 82 51 197 341 150 152 65 123 26 133 252 12 354 339 339 316 336 329 328 333 323 333
140 134 133 138 148 153 151 153 146 132 96 88 61 58 14 359 38 310 351 278 301 97 356 343 323 330 337 325 335 326 323 311
152 158 147 163 139 149 157 135 141 126 125 118 104 91 67 152 309 26 308 337 17 69 346 343 327 331 320 328 331 307 321 326
175 131 170 158 154 155 160 123 131 135 137 128 114 133 154 267 98 343 324 333 343 351 323 327 316 319 314 317 305 349 314 324
116 148 162 117 137 140 139 129 131 160 146 145 151 102 33 20 337 287 20 336 335 12 323 321 312 313 308 308 299 307 318 307
134 141 141 127 153 127 119 154 149 156 165 166 150 129 260 356 280 271 301 315 321 319 319 313 311 307 304 306 306 316 320 296
160 154 134 154 149 142 148 157 166 168 202 189 213 303 348 334 288 287 305 313 305 316 317 306 304 301 303 303 273 276 274 300
167 141 151 160 165 146 146 170 320 254 234 127 296 289 341 321 292 290 301 302 302 303 305 297 294 300 306 297 292 309 301 293